Regional Weather Roundup
Issued by NWS

Home | Current Version | Previous Version | Text Only | Print | Product List | Glossary On
Versions: 1 2 3 4 5 6 7 8 9 10 11 12 13 14 15 16 17 18 19 20 21 22 23 24 25 26 27 28 29 30 31 32 33 34 35 36 37 38 39 40 41 42 43 44 45 46 47 48 49 50
000
ASUS44 KFWD 040815
RWRTX
NORTH TEXAS HOURLY WEATHER ROUNDUP
NATIONAL WEATHER SERVICE FORT WORTH TX
300 AM CDT WED MAY 04 2016

NOTE: "FAIR" INDICATES FEW OR NO CLOUDS BELOW 12,000 FEET WITH NO
SIGNIFICANT WEATHER AND/OR OBSTRUCTIONS TO VISIBILITY.

TXZ118-119-040900-
DALLAS/FORT WORTH METROPLEX

CITY           SKY/WX    TMP DP  RH WIND       PRES   REMARKS
DFW AIRPORT    CLEAR     61  55  81 CALM      30.05F
DALLAS LOVE    CLEAR     59  53  80 CALM      30.05F
FTW MEACHAM    CLEAR     58  54  86 NW3       30.06F
DAL-EXECUTIVE  CLEAR     55  48  77 W3        30.05F
FTW-ALLIANCE   PTCLDY    51  50  96 SW3       30.05F
FTW-NAS-JRB    CLEAR     59  54  83 CALM      30.07F
FTW-SPINKS     CLEAR     53  52  95 CALM      30.08S
ARLINGTON      CLEAR     55  51  86 SW3       30.06F
GRAND PRAIRIE  CLEAR     61  51  70 CALM      30.07F
ADDISON        CLEAR     59  55  85 CALM      30.07F
MESQUITE       CLEAR     58  50  76 W3        30.06S
LANCASTER      CLEAR     55  48  77 W3        30.07F
$$

TXZ091>094-102>105-117-120-121-131>134-040900-
NORTH CENTRAL TEXAS

CITY           SKY/WX    TMP DP  RH WIND       PRES   REMARKS
SHRMAN/DENISON CLEAR     52  46  80 CALM      30.06S
GAINESVILLE    CLEAR     52  50  93 W5        30.07F
BOWIE          CLEAR     50  50  98 CALM      30.07S
BRIDGEPORT     CLEAR     53  53 100 W3        30.08F
DECATUR        CLEAR     56  55  99 SW5       30.06F
DENTON         CLEAR     52  51  97 CALM      30.06F
MCKINNEY       CLEAR     56  53  90 CALM      30.05F
GREENVILLE     CLEAR     54  52  94 CALM      30.05F
WAXAHACHIE     CLEAR     53  53  98 CALM      30.07F
CLEBURNE       CLEAR     54  54 100 CALM      30.08F
GRANBURY         N/A     53  52  95 CALM      30.09S
$$

TXZ083>090-098>101-113>116-127>130-139>142-154-155-040900-
WESTERN NORTH TEXAS

CITY           SKY/WX    TMP DP  RH WIND       PRES   REMARKS
WICHITA FALLS  CLEAR     54  53  97 W12       30.06F
WF-KICKAPOO    CLEAR     56  53  88 W7        30.08S
VERNON         CLEAR     52  48  86 W6        30.09S
ABILENE        CLEAR     53  51  93 CALM      30.12S
ABILENE-DYESS  CLEAR     54  52  95 W6        30.10F
BRECKENRIDGE   CLEAR     55  54  98 CALM      30.09S
GRAHAM         CLEAR     49  49 100 CALM      30.07S
MINERAL WELLS  CLEAR     53  52  96 W5        30.06F
STEPHENVILLE   CLEAR     55  51  88 CALM      30.11S
COMANCHE       CLEAR     56  53  91 MISG      30.09S
BROWNWOOD      CLEAR     54  54 100 CALM      30.11S
COLEMAN        CLEAR     53  52  97 W3        30.11F
$$

TXZ143>147-156>162-174-175-040900-
CENTRAL TEXAS

CITY           SKY/WX    TMP DP  RH WIND       PRES   REMARKS
WACO           CLEAR     54  52  93 N3        30.07S
WACO-MCGREGOR  CLEAR     55  51  86 CALM      30.07S
HILLSBORO      CLEAR     53  49  87 CALM      30.07F
CORSICANA      CLEAR     56  50  80 W5        30.07S
MEXIA          CLEAR     53  51  92 W9        30.06F
HEARNE         CLEAR     52  51  95 CALM      30.07S
CAMERON        CLEAR     56  51  85 CALM      30.06S
TEMPLE         CLEAR     53  51  93 CALM      30.07F
KILLEEN        CLEAR     53  49  88 W3        30.06F
KILLEEN-SKYLRK CLEAR     57  50  77 CALM      30.07F
FORT HOOD      CLEAR     58  49  74 W3        30.05F
GATESVILLE     CLEAR     55  52  88 MISG      30.09S
HAMILTON       CLEAR     55  52  89 W5        30.09S
LAMPASAS       CLEAR     54  51  92 CALM      30.07F
$$

TXZ095>097-106>112-122>126-135>138-148>153-164>167-040900-
EAST TEXAS

CITY           SKY/WX    TMP DP  RH WIND       PRES   REMARKS
PARIS          CLEAR     57  46  67 CALM      30.04F
SULPHUR SPRNGS CLEAR     57  52  82 CALM      30.06F
MOUNT PLEASANT CLEAR     54  53  97 CALM      30.05F
GILMER         PTCLDY    54  53  95 CALM      30.04S
MINEOLA        CLEAR     54  52  94 CALM      30.05F
TYLER          CLEAR     56  51  84 CALM      30.04F
LONGVIEW       CLOUDY    56  52  86 NW3       30.02F
MARSHALL       CLOUDY    55  53  92 CALM      30.05S
ATHENS         CLEAR     52  52 100 CALM      30.04F
PALESTINE      CLEAR     53  52  96 CALM      30.06F
JACKSONVILLE   CLEAR     61  48  62 CALM      30.06F
HENDERSON      CLOUDY    54  52  94 CALM      30.05F
CENTER         FAIR      56  55  95 CALM      30.02F
NACOGDOCHES    CLOUDY    54  52  94 NW5       30.04S
LUFKIN         PTCLDY    55  53  93 CALM      30.03F
$$

SUPPLEMENTAL OBSERVATIONS (CENTRAL)

CITY           SKY/WX    TMP DP  RH WIND       PRES   REMARKS
CADDO GRASSLND   N/A     52  50  93 CALM        N/A
PAT MAYSE LAKE   N/A     57  55  94 SE2         N/A
GREENVILLE       N/A     55  52  88 W3          N/A
CEDAR HILL       N/A     54  48  82 S2          N/A
LAKE LIMESTONE   N/A     54  52  94 W1          N/A
MCGREGOR         N/A     54  50  87 SW1         N/A
$$

SUPPLEMENTAL OBSERVATIONS (WEST)

CITY           SKY/WX    TMP DP  RH WIND       PRES   REMARKS
MILLERS CREEK    N/A     52  50  93 SW5         N/A
LBJ GRASSLAND    N/A     54  52  94 N1          N/A
COMANCHE         N/A     55  52  88 SW3         N/A
HAMBY            N/A     52  50  93 CALM        N/A
IVIE RESERVOIR   N/A     54  48  82 SW2         N/A
COLORADO BEND    N/A     55  48  76 NW5         N/A
$$

SUPPLEMENTAL OBSERVATIONS (EAST)

CITY           SKY/WX    TMP DP  RH WIND       PRES   REMARKS
CLARKSVILLE      N/A     52  50  93 CALM        N/A
TEXARKANA        N/A     48  46  93 CALM        N/A
LINDEN           N/A     55  48  76 NW1         N/A
CADDO LAKE       N/A     54  50  87 CALM        N/A
GILMER           N/A     54  50  87 CALM        N/A
HENDERSON        N/A     55  52  88 CALM        N/A
LUFKIN           N/A     55  54  94 MISG        N/A
N SABINE NF      N/A     52  48  87 MISG        N/A
S SABINE NF      N/A     52  50  93 CALM        N/A
$$

SUPPLEMENTAL OBSERVATIONS ARE A COLLECTION OF AUTOMATED INSTRUMENTS
THAT ARE MAINTAINED BY A VARIETY OF FEDERAL AND STATE AGENCIES.
CERTAIN ELEMENTS...SUCH AS HUMIDITY VALUES AND SUSTAINED WIND
SPEEDS...MAY BE APPROXIMATED.





USA.gov is the U.S. government's official web portal to all federal, state and local government web resources and services.